Regional Weather Roundup
Issued by NWS

Home | Current Version | Previous Version | Graphics & Text | Print | Product List | Glossary On
Versions: 1 2 3 4 5 6 7 8 9 10 11 12 13 14 15 16 17 18 19 20 21 22 23 24 25 26 27 28 29 30 31 32 33 34 35 36 37 38 39 40 41 42 43 44 45 46 47 48 49 50
775
ASUS43 KLMK 220610
RWRKY
KENTUCKY REGIONAL WEATHER ROUNDUP
NATIONAL WEATHER SERVICE LOUISVILLE KY
100 AM EST THU FEB 22 2018

NOTE "FAIR" INDICATES FEW OR NO CLOUDS BELOW 12,000 FEET
WITH NO SIGNIFICANT WEATHER AND/OR OBSTRUCTIONS TO VISIBILITY.

KYZ001>023-026-027-061>063-070>075-220700-
WESTERN AND SOUTH CENTRAL KENTUCKY

CITY           SKY/WX    TMP DP  RH WIND       PRES   REMARKS
PADUCAH        RAIN      40  37  89 NE13      30.34S FOG     WCI  32
HENDERSON      RAIN      41  40  96 NE15      30.36F
OWENSBORO      LGT RAIN  42  41  96 N7        30.38S FOG
HOPKINSVILLE   HVY RAIN  46  46 100 N12       30.27F
BOWLING GREEN  LGT RAIN  50  49  96 N5        30.30F
GLASGOW        HVY RAIN N/A N/A N/A E18       30.29S
$$

KYZ024-025-028>034-038-045-046-053-220700-
NORTH CENTRAL KENTUCKY

CITY           SKY/WX    TMP DP  RH WIND       PRES   REMARKS
LOUISVILLE/SDF LGT RAIN  46  43  89 N9        30.38F
LOUISVILLE/LOU RAIN      45  45 100 N6        30.40S FOG
FORT KNOX      LGT RAIN  46  46  99 N9        30.37F
$$

KYZ035>037-039>044-047>052-055>060-089>105-220700-
NORTHEAST KENTUCKY

CITY           SKY/WX    TMP DP  RH WIND       PRES   REMARKS
LEXINGTON      RAIN      47  44  90 NE15      30.36F FOG
COVINGTON      LGT RAIN  43  43 100 NE17      30.42F
FRANKFORT      HVY RAIN  47  43  86 N9        30.37R FOG
$$

KYZ054-064>069-076>088-106>120-220700-
SOUTHEAST KENTUCKY

CITY           SKY/WX    TMP DP  RH WIND       PRES   REMARKS
JACKSON        CLOUDY    52  50  93 VRB5      30.34F FOG
LONDON         CLOUDY    57  55  93 NE6       30.31F
SOMERSET       CLOUDY    52  52 100 E6        30.32F
MIDDLESBORO    FAIR      62  59  91 S6        30.31F
MONTICELLO     NOT AVBL
$$





USA.gov is the U.S. government's official web portal to all federal, state and local government web resources and services.